Albert Lea, MN

12:46 AM CDT on May 30, 2017 (GMT -0500)
Albert Lea Municipal

Weather History for KAEL - April, 2013

Change the Weather History Date:

Saturday, April 6, 2013

  Actual Average Record
Temperature  
Mean Temperature 50 °F -  
Max Temperature 60 °F 48 °F 68 °F (2004)
Min Temperature 39 °F 31 °F 15 °F (2007)
Degree Days  
Heating Degree Days 16    
Moisture  
Dew Point 39 °F    
Average Humidity 75    
Maximum Humidity 100    
Minimum Humidity 59    
Precipitation  
Precipitation 0.03 in - - ()
Sea Level Pressure  
Sea Level Pressure 29.65 in    
Wind  
Wind Speed 16 mph (SSW)    
Max Wind Speed 24 mph    
Max Gust Speed 32 mph    
Visibility 9 miles    
Events Rain    
Averages and records for this station are not official NWS values.
T = Trace of Precipitation, MM = Missing Value Source: NWS Daily Summary

Daily Weather History Graph

Daily Weather History Graph

Search for Another Location

Airport or City:

Trip Planner

Search our weather history database for the weather conditions in past years. The results will help you decide how hot, cold, wet, or windy it might be!

Date:

Astronomy

Apr. 06, 2013 Rise Set
Actual Time 6:45 AM CDT 7:46 PM CDT
Civil Twilight 6:16 AM CDT 8:15 PM CDT
Nautical Twilight 5:41 AM CDT 8:50 PM CDT
Astronomical Twilight 5:04 AM CDT 9:27 PM CDT
Moon 4:36 AM CDT (4/6) 4:09 PM CDT (4/6)
Length of Visible Light 13h 59m
Length of Day
13h 00m
Waning Crescent, 15% of the Moon is Illuminated
Apr 6
Waning Crescent
Apr 10
New
Apr 18
First Quarter
Apr 25
Full
May 2
Last Quarter

Hourly Weather History & Observations

Time (CDT) Temp. Windchill Dew Point Humidity Pressure Visibility Wind Dir Wind Speed Gust Speed Precip Events Conditions
12:12 AM 41.0 °F 31.9 °F 32.0 °F 70% 29.84 in 10.0 mi SE 19.6 mph 24.2 mph N/A   Clear
12:33 AM 42.8 °F 34.5 °F 30.2 °F 61% 29.84 in 10.0 mi SE 18.4 mph 24.2 mph N/A   Clear
12:52 AM 42.8 °F 34.8 °F 32.0 °F 66% 29.83 in 10.0 mi SE 17.3 mph 29.9 mph N/A   Clear
1:12 AM 42.8 °F 34.3 °F 32.0 °F 66% 29.82 in 10.0 mi SE 19.6 mph 25.3 mph N/A   Clear
1:32 AM 42.8 °F 33.8 °F 30.2 °F 61% 29.81 in 10.0 mi SE 21.9 mph 26.5 mph N/A   Scattered Clouds
1:52 AM 42.8 °F 34.5 °F 30.2 °F 61% 29.81 in 10.0 mi SE 18.4 mph 28.8 mph N/A   Scattered Clouds
2:12 AM 42.8 °F 34.5 °F 32.0 °F 66% 29.80 in 10.0 mi SE 18.4 mph 26.5 mph N/A   Clear
2:33 AM 42.8 °F 34.0 °F 32.0 °F 66% 29.78 in 10.0 mi SSE 20.7 mph 28.8 mph N/A   Clear
2:52 AM 42.8 °F 34.3 °F 32.0 °F 66% 29.78 in 10.0 mi SSE 19.6 mph 28.8 mph N/A   Clear
3:12 AM 42.8 °F 34.3 °F 33.8 °F 70% 29.76 in 10.0 mi SSE 19.6 mph 29.9 mph N/A   Clear
3:33 AM 42.8 °F 34.0 °F 32.0 °F 66% 29.75 in 10.0 mi SE 20.7 mph 27.6 mph N/A   Clear
3:52 AM 42.8 °F 34.0 °F 32.0 °F 66% 29.74 in 10.0 mi SSE 20.7 mph 25.3 mph N/A   Clear
4:12 AM 41.0 °F 31.1 °F 32.0 °F 70% 29.73 in 10.0 mi SE 23.0 mph 31.1 mph N/A   Clear
4:33 AM 41.0 °F 31.6 °F 30.2 °F 65% 29.73 in 10.0 mi SSE 20.7 mph 26.5 mph N/A   Clear
4:52 AM 41.0 °F 31.6 °F 30.2 °F 65% 29.72 in 10.0 mi SE 20.7 mph 27.6 mph N/A   Clear
5:12 AM 39.2 °F 29.6 °F 30.2 °F 70% 29.71 in 10.0 mi SE 19.6 mph 28.8 mph N/A   Clear
5:33 AM 39.2 °F 29.0 °F 30.2 °F 70% 29.69 in 10.0 mi SE 21.9 mph 32.2 mph N/A   Scattered Clouds
5:52 AM 39.2 °F 29.0 °F 30.2 °F 70% 29.68 in 10.0 mi SSE 21.9 mph 28.8 mph N/A   Scattered Clouds
6:12 AM 39.2 °F 28.5 °F 30.2 °F 70% 29.67 in 10.0 mi SE 24.2 mph 29.9 mph N/A   Clear
6:33 AM 39.2 °F 29.0 °F 30.2 °F 70% 29.67 in 10.0 mi SSE 21.9 mph 27.6 mph N/A   Clear
6:52 AM 39.2 °F 29.3 °F 30.2 °F 70% 29.66 in 10.0 mi SSE 20.7 mph 26.5 mph N/A   Scattered Clouds
7:12 AM 39.2 °F 29.3 °F 30.2 °F 70% 29.65 in 10.0 mi SSE 20.7 mph - N/A   Overcast
7:33 AM 39.2 °F 29.6 °F 32.0 °F 75% 29.65 in 10.0 mi SSE 19.6 mph 26.5 mph N/A   Mostly Cloudy
7:52 AM 39.2 °F 28.7 °F 32.0 °F 75% 29.63 in 10.0 mi SSE 23.0 mph 27.6 mph N/A   Mostly Cloudy
8:12 AM 39.2 °F 29.3 °F 33.8 °F 81% 29.63 in 10.0 mi SSE 20.7 mph - N/A   Mostly Cloudy
8:33 AM 41.0 °F 31.9 °F 33.8 °F 76% 29.62 in 10.0 mi SSE 19.6 mph - N/A   Clear
8:52 AM 42.8 °F 35.1 °F 35.6 °F 76% 29.61 in 10.0 mi SSE 16.1 mph 23.0 mph N/A   Clear
9:12 AM 44.6 °F 37.8 °F 35.6 °F 71% 29.59 in 10.0 mi SSE 15.0 mph 25.3 mph N/A   Clear
9:33 AM 46.4 °F 39.8 °F 37.4 °F 71% 29.58 in 10.0 mi SSE 16.1 mph 21.9 mph N/A   Clear
9:52 AM 48.2 °F - 39.2 °F 71% 29.56 in 10.0 mi South 16.1 mph 23.0 mph N/A   Scattered Clouds
10:12 AM 51.8 °F - 41.0 °F 67% 29.56 in 10.0 mi South 11.5 mph 15.0 mph N/A   Scattered Clouds
10:32 AM 53.6 °F - 42.8 °F 67% 29.56 in 10.0 mi South 13.8 mph 21.9 mph N/A   Scattered Clouds
10:52 AM 55.4 °F - 42.8 °F 63% 29.55 in 10.0 mi South 13.8 mph 23.0 mph N/A   Clear
11:13 AM 57.2 °F - 44.6 °F 63% 29.55 in 10.0 mi South 15.0 mph 26.5 mph N/A   Clear
11:32 AM 57.2 °F - 44.6 °F 63% 29.55 in 10.0 mi South 13.8 mph 18.4 mph N/A   Scattered Clouds
11:52 AM 59.0 °F - 46.4 °F 63% 29.54 in 10.0 mi SSW 9.2 mph 18.4 mph N/A   Mostly Cloudy
12:13 PM 60.8 °F - 46.4 °F 59% 29.54 in 10.0 mi SSW 11.5 mph 21.9 mph N/A   Mostly Cloudy
12:32 PM 60.8 °F - 46.4 °F 59% 29.53 in 10.0 mi SSW 12.7 mph 21.9 mph N/A   Overcast
12:52 PM 59.0 °F - 46.4 °F 63% 29.51 in 10.0 mi SSW 12.7 mph 20.7 mph N/A   Overcast
1:13 PM 59.0 °F - 48.2 °F 67% 29.51 in 10.0 mi SW 9.2 mph 18.4 mph N/A   Scattered Clouds
1:32 PM 59.0 °F - 46.4 °F 63% 29.51 in 10.0 mi SSW 6.9 mph - N/A   Mostly Cloudy
1:53 PM 57.2 °F - 48.2 °F 72% 29.51 in 10.0 mi SSW 12.7 mph 16.1 mph N/A Rain Light Rain
2:12 PM 59.0 °F - 48.2 °F 67% 29.51 in 10.0 mi WSW 9.2 mph 18.4 mph N/A Rain Light Rain
2:32 PM 55.4 °F - 46.4 °F 72% 29.51 in 10.0 mi West 11.5 mph 18.4 mph N/A   Scattered Clouds
2:52 PM 53.6 °F - 44.6 °F 72% 29.52 in 10.0 mi WSW 8.1 mph 16.1 mph N/A   Scattered Clouds
3:12 PM 51.8 °F - 44.6 °F 76% 29.52 in 5.0 mi WSW 6.9 mph - N/A Rain Light Rain
3:33 PM 50.0 °F - 46.4 °F 87% 29.51 in 5.0 mi SSW 4.6 mph - 0.01 in Rain Light Rain
3:52 PM 50.0 °F - 46.4 °F 87% 29.52 in 5.0 mi WSW 5.8 mph - N/A   Scattered Clouds
4:12 PM 50.0 °F - 46.4 °F 87% 29.53 in 7.0 mi SW 9.2 mph - N/A   Scattered Clouds
4:32 PM 50.0 °F - 46.4 °F 87% 29.53 in 7.0 mi WSW 9.2 mph 16.1 mph N/A   Mostly Cloudy
4:53 PM 48.2 °F - 46.4 °F 93% 29.55 in 3.0 mi West 12.7 mph 24.2 mph N/A Rain Light Rain
5:12 PM 46.4 °F 41.1 °F 46.4 °F 100% 29.56 in 3.0 mi West 11.5 mph 21.9 mph N/A   Overcast
5:32 PM 46.4 °F 41.1 °F 46.4 °F 100% 29.57 in 3.0 mi West 11.5 mph 17.3 mph N/A   Light Drizzle
5:52 PM 46.4 °F 41.5 °F 46.4 °F 100% 29.59 in 4.0 mi West 10.4 mph 19.6 mph N/A   Overcast
6:12 PM 46.4 °F 40.4 °F 46.4 °F 100% 29.60 in 4.0 mi West 13.8 mph 18.4 mph N/A   Overcast
6:32 PM 46.4 °F 41.5 °F 44.6 °F 93% 29.61 in 5.0 mi WNW 10.4 mph 19.6 mph N/A   Overcast
6:52 PM 46.4 °F 40.7 °F 42.8 °F 87% 29.62 in 7.0 mi NW 12.7 mph 20.7 mph N/A   Overcast
7:12 PM 46.4 °F 40.7 °F 42.8 °F 87% 29.63 in 7.0 mi NW 12.7 mph 19.6 mph N/A   Overcast
7:32 PM 46.4 °F 41.5 °F 42.8 °F 87% 29.64 in 7.0 mi NW 10.4 mph 18.4 mph N/A   Overcast
7:52 PM 46.4 °F 41.5 °F 41.0 °F 81% 29.65 in 10.0 mi NW 10.4 mph 21.9 mph 0.01 in   Overcast
8:12 PM 44.6 °F 39.2 °F 41.0 °F 87% 29.66 in 10.0 mi NW 10.4 mph 18.4 mph 0.01 in   Overcast
8:32 PM 44.6 °F 39.7 °F 41.0 °F 87% 29.67 in 7.0 mi NW 9.2 mph - 0.01 in   Overcast
8:53 PM 44.6 °F 38.8 °F 41.0 °F 87% 29.68 in 7.0 mi NW 11.5 mph 18.4 mph N/A   Overcast
9:12 PM 44.6 °F 39.7 °F 39.2 °F 81% 29.70 in 10.0 mi NW 9.2 mph 23.0 mph N/A   Mostly Cloudy
9:32 PM 42.8 °F 36.2 °F 37.4 °F 81% 29.71 in 10.0 mi NW 12.7 mph 20.7 mph N/A   Scattered Clouds
9:53 PM 42.8 °F 37.0 °F 37.4 °F 81% 29.72 in 10.0 mi NW 10.4 mph 18.4 mph N/A   Mostly Cloudy
10:12 PM 42.8 °F 37.0 °F 37.4 °F 81% 29.73 in 10.0 mi NW 10.4 mph - N/A   Overcast
10:32 PM 42.8 °F 38.0 °F 37.4 °F 81% 29.73 in 10.0 mi NW 8.1 mph 18.4 mph N/A   Overcast
10:53 PM 41.0 °F 35.2 °F 37.4 °F 87% 29.73 in 10.0 mi NNW 9.2 mph - N/A   Overcast
11:12 PM 41.0 °F 36.4 °F 37.4 °F 87% 29.74 in 10.0 mi NW 6.9 mph - N/A   Overcast
11:32 PM 41.0 °F 36.4 °F 37.4 °F 87% 29.74 in 10.0 mi NW 6.9 mph - N/A   Overcast
11:53 PM 41.0 °F 34.7 °F 37.4 °F 87% 29.75 in 10.0 mi NW 10.4 mph 17.3 mph N/A   Overcast